Theta_e
336 335 333 331 328 329 332 334 333 333 333 332 331 332 331 330 331 333 335 333 333 334 333 333 333 332 331 330 329 329 327 319 315 318 319 318 316 316 316 316 316 316 316 315 315 314 314 314 313 313 313 312 312 312 312 313 313 314 313 313 313 313 313 313 313 314 314 314 313 313 312 312 312 313 313 313 313 313 314 314 314 314 314 314 314
335 335 334 332 329 328 330 333 333 333 332 329 330 333 333 331 331 333 334 333 333 334 333 333 333 332 331 330 329 327 323 318 318 320 318 316 316 316 316 316 315 316 315 315 314 313 313 313 312 312 311 311 311 311 310 310 310 311 312 312 312 312 312 312 312 313 313 313 313 312 312 312 312 312 312 312 313 313 313 313 313 313 313 313 313
336 335 333 332 330 329 331 333 332 331 330 327 328 331 331 331 332 334 334 332 333 333 333 333 333 331 330 329 327 324 321 317 320 319 317 316 316 316 316 315 315 315 314 314 313 312 312 312 311 311 310 310 310 309 308 306 305 307 308 310 311 312 311 311 312 312 312 313 312 312 312 312 312 312 311 312 312 312 312 312 312 312 312 312 311
335 334 333 332 331 331 332 332 331 330 328 325 327 329 330 332 334 334 333 332 333 333 333 333 332 331 329 327 325 322 319 318 319 318 316 316 317 316 316 315 315 314 313 312 312 311 312 311 310 310 309 308 307 305 304 302 301 302 304 307 309 310 310 311 311 311 311 312 312 311 311 311 311 311 311 311 312 312 312 312 312 311 312 311 310
334 334 333 334 333 333 333 332 330 330 328 326 326 327 329 333 334 332 331 332 332 332 333 332 331 329 327 325 323 321 319 320 319 317 316 316 316 316 315 314 314 313 312 311 312 312 312 311 309 308 306 304 303 302 300 299 300 300 302 304 307 310 310 310 310 310 311 311 311 311 310 310 310 311 311 310 311 311 311 311 311 310 311 311 309
334 334 334 334 334 333 332 331 330 330 330 329 328 327 330 333 332 331 331 332 332 332 332 330 328 328 326 323 322 320 320 320 319 318 316 315 316 316 315 314 312 311 312 312 313 313 312 310 307 304 302 301 299 299 299 299 300 300 300 302 306 309 310 310 310 310 311 311 310 310 310 310 310 310 310 310 310 311 310 311 310 310 310 310 309
334 334 334 334 332 330 330 329 327 329 331 332 330 330 332 331 330 331 331 332 332 332 331 329 327 326 324 322 321 320 319 319 318 317 316 316 316 316 315 314 312 312 312 312 312 312 311 310 305 300 300 299 298 298 299 300 300 300 300 300 303 308 310 310 310 310 310 310 310 309 310 310 310 310 310 309 310 310 309 309 310 310 310 310 308
334 333 334 334 332 330 328 327 327 330 332 332 332 332 331 330 331 331 331 331 332 331 330 328 326 324 322 320 320 319 319 318 317 316 316 316 316 315 315 314 313 313 312 312 312 311 310 309 304 298 298 298 298 298 298 299 300 299 300 300 301 306 308 309 309 309 309 309 309 309 309 309 309 309 309 309 309 309 309 309 309 309 309 309 308
333 333 333 333 332 331 329 328 329 332 333 332 332 332 331 331 332 332 330 331 332 331 330 327 325 324 321 319 319 319 318 317 317 316 316 316 316 315 315 314 314 313 312 312 311 311 310 308 302 298 299 298 298 298 297 298 299 298 299 299 299 302 306 308 307 308 309 309 309 309 309 309 309 309 309 308 308 309 309 308 309 309 308 308 308
333 332 332 331 330 330 329 329 331 333 333 333 333 332 331 332 333 332 331 331 331 330 328 326 325 323 320 318 318 318 318 317 315 315 315 315 315 314 314 314 313 313 312 311 311 311 310 306 300 297 299 298 297 298 298 298 298 298 297 298 297 299 305 307 307 307 308 309 308 308 308 308 308 308 308 307 307 308 308 308 308 308 308 308 308
333 332 332 331 330 329 329 330 332 334 334 333 333 332 332 332 332 332 331 331 330 329 328 326 324 321 318 318 318 317 317 316 314 314 314 314 315 315 314 313 313 312 312 311 310 310 310 308 305 304 302 300 298 298 298 298 298 297 297 297 297 297 301 305 306 306 307 308 307 307 307 307 307 307 307 307 307 307 308 308 308 308 307 307 307
333 333 332 332 331 331 331 331 333 335 334 334 333 333 332 332 332 331 330 329 329 329 328 324 321 319 318 318 317 317 316 315 314 313 312 312 314 314 314 313 312 312 312 312 311 310 310 309 308 305 303 301 301 299 298 298 297 297 297 297 297 297 299 301 302 304 306 307 307 306 306 306 306 307 307 306 306 307 308 308 308 307 307 307 307
334 333 333 332 331 331 332 332 333 334 334 334 334 333 332 331 331 330 329 328 328 329 326 321 318 318 318 317 316 316 315 314 313 312 311 311 311 313 314 312 311 312 312 311 311 310 309 307 305 302 300 301 302 300 298 298 297 297 297 296 297 297 298 300 300 301 304 305 306 306 305 305 305 306 306 306 306 307 308 307 307 307 307 307 307
334 334 334 333 333 332 332 332 332 334 334 334 333 332 331 331 330 329 328 328 328 328 323 318 317 318 317 316 316 315 314 313 312 311 311 310 308 311 313 311 310 311 311 311 310 310 309 308 306 304 303 302 301 300 299 298 297 297 297 296 297 297 297 298 299 299 302 304 304 304 304 304 305 305 305 305 305 306 307 308 307 307 308 308 308
334 334 334 334 333 333 333 332 332 334 334 333 332 332 331 330 329 328 327 327 328 325 319 317 317 317 316 316 315 314 313 312 312 311 311 308 305 309 311 310 309 311 310 310 309 309 308 308 307 305 303 300 299 300 301 302 300 299 297 296 297 297 296 297 298 299 301 303 303 302 302 303 304 304 304 304 304 305 307 307 307 307 308 308 308
333 334 334 333 333 333 333 333 333 333 334 332 331 331 330 330 329 328 327 326 325 321 317 317 317 316 316 315 314 313 312 311 311 310 308 305 302 306 308 308 309 310 310 309 309 307 307 307 306 304 301 298 297 297 300 303 303 302 299 298 298 299 297 296 297 297 299 300 302 302 301 301 302 303 304 304 303 304 306 307 306 307 308 308 308
332 332 333 333 333 332 332 333 333 333 334 332 330 330 330 329 328 327 327 326 322 318 317 317 316 315 315 315 313 312 312 311 310 308 305 302 301 302 304 307 309 309 309 309 308 306 306 306 306 304 301 298 298 297 297 301 304 303 302 301 301 300 299 297 297 297 297 298 299 301 302 302 301 302 303 303 302 303 305 306 306 306 307 307 307
331 331 332 333 332 331 331 333 333 333 333 331 330 330 329 328 328 327 326 324 320 317 316 316 315 315 315 314 313 312 311 309 307 304 301 299 299 301 304 307 309 309 309 309 307 303 301 303 305 305 302 298 298 297 297 301 303 302 302 302 302 300 298 298 299 298 298 299 300 301 302 302 302 302 302 302 302 302 304 305 305 306 306 306 306
331 331 331 331 331 331 332 333 333 333 333 331 330 329 328 328 327 326 325 322 319 316 315 315 314 314 314 313 311 310 309 307 304 301 299 297 298 303 306 307 307 308 308 307 305 301 299 299 301 302 300 298 298 298 297 300 301 300 299 300 300 298 296 297 298 298 299 301 303 303 303 303 303 303 303 302 303 303 304 305 304 305 305 305 305
332 332 331 331 332 332 332 332 333 333 332 331 330 328 327 327 327 326 324 320 317 315 315 314 313 313 312 311 310 309 307 305 302 299 298 296 299 305 308 307 307 307 306 306 305 303 301 299 298 299 299 298 299 299 297 298 298 297 296 297 297 296 296 296 296 296 298 301 303 304 304 304 304 303 303 303 303 304 304 304 304 303 303 303 303
331 331 331 332 333 332 331 332 332 330 329 329 328 327 327 327 327 327 323 318 315 314 314 313 312 311 310 310 309 308 306 304 300 298 297 296 300 306 308 306 306 306 305 305 305 304 304 302 299 298 299 299 299 299 298 297 296 295 295 295 295 295 296 297 298 299 300 302 304 304 304 304 304 303 303 303 303 303 303 303 302 302 301 302 302
331 331 331 331 332 331 331 331 331 329 328 327 327 327 327 327 327 325 320 316 314 314 313 312 311 310 310 310 309 307 304 301 298 297 297 297 300 305 307 306 306 306 306 306 306 305 305 303 299 298 299 299 299 299 298 297 297 295 294 295 296 295 296 298 300 302 303 304 304 303 304 304 303 303 303 302 302 302 302 301 301 301 300 301 300
331 330 329 329 331 330 328 327 327 327 327 327 327 327 327 327 326 323 319 315 314 313 311 311 311 311 310 310 309 307 302 298 297 296 296 297 300 303 304 303 304 306 306 305 305 305 302 299 298 299 299 299 299 299 298 298 297 295 294 294 295 295 298 299 300 302 302 302 302 302 302 302 302 302 302 302 302 302 301 301 301 300 300 299 298
330 329 328 328 330 330 328 326 325 326 327 327 327 327 327 326 324 322 318 315 313 312 311 311 311 311 311 310 310 307 301 297 296 296 296 296 298 299 299 299 303 306 305 305 304 303 300 297 297 298 298 298 299 298 298 298 297 296 295 295 296 298 300 301 301 301 302 302 302 301 300 299 299 300 301 301 301 301 301 300 299 299 299 297 296
330 328 328 328 329 329 328 326 325 326 327 327 327 328 327 325 324 321 317 315 314 312 311 311 311 311 311 310 310 308 303 297 296 296 296 296 297 297 297 297 300 301 302 301 300 299 297 296 296 297 297 298 298 298 298 298 298 296 294 296 298 299 300 301 301 301 301 301 301 301 301 300 298 298 298 300 300 301 301 301 300 299 300 299 297
330 328 328 328 328 327 327 325 325 326 326 327 327 326 326 324 322 318 315 314 314 312 311 311 310 310 310 310 310 309 305 300 296 296 296 296 296 296 296 296 296 296 296 296 295 295 295 295 295 296 296 297 298 299 299 298 297 297 296 298 299 299 299 301 301 302 302 301 301 301 301 301 300 299 299 300 300 299 300 301 300 300 301 301 300
328 328 328 328 327 326 325 324 325 326 326 326 325 324 324 323 319 315 313 313 313 312 311 311 310 310 311 311 310 309 307 303 297 295 296 296 295 295 295 295 294 295 294 294 294 294 294 294 294 295 295 295 296 297 297 298 299 300 301 300 298 296 296 298 300 301 302 302 302 302 301 301 301 300 300 300 299 299 299 300 300 300 300 301 301
327 327 327 327 326 325 324 324 325 325 325 323 322 321 321 320 317 314 313 312 312 312 311 311 310 311 311 311 310 309 308 305 299 296 296 296 296 296 295 294 295 297 296 295 294 293 293 294 294 294 295 296 298 299 299 301 302 303 302 301 299 297 297 298 300 301 302 302 302 302 302 302 301 301 300 300 299 299 299 300 300 300 300 300 300
326 326 326 326 325 324 323 322 323 323 322 321 319 318 317 316 315 314 313 312 312 312 311 311 311 311 311 311 311 309 308 306 301 296 295 296 298 298 297 297 298 299 297 294 294 294 295 296 297 297 298 300 301 302 302 302 302 302 301 301 302 301 300 301 301 301 301 302 302 301 302 302 302 301 301 301 300 299 299 299 300 300 300 300 300
325 325 325 325 324 322 321 320 320 320 320 319 318 316 314 314 315 314 313 313 312 312 311 311 311 311 310 311 311 309 308 307 303 297 294 296 297 297 297 297 298 297 294 293 296 298 299 299 299 299 300 301 301 302 302 302 303 302 300 300 301 301 300 301 301 299 299 300 301 301 301 301 301 301 301 301 301 301 300 300 300 300 300 300 300
323 323 323 323 322 320 319 318 318 318 318 317 316 315 314 314 314 313 313 313 312 312 312 311 311 311 310 311 310 309 308 308 303 296 294 295 295 294 295 295 295 295 293 294 297 298 298 298 298 299 300 300 300 300 300 300 301 301 301 301 301 299 299 301 300 299 299 300 300 300 300 300 301 301 300 300 301 301 301 301 301 300 300 300 299
321 321 321 321 320 319 318 318 318 317 316 315 314 314 313 314 313 313 312 312 312 312 311 311 311 311 311 311 311 309 308 307 303 295 294 295 294 294 295 294 294 294 294 295 298 298 298 298 298 298 299 299 298 298 299 299 300 299 300 300 299 299 300 300 297 298 300 300 299 300 300 300 300 300 300 300 300 300 301 301 301 301 301 300 300
320 320 320 319 318 318 317 317 317 315 314 314 313 313 313 313 312 312 312 311 311 311 311 310 311 311 310 310 310 308 306 306 301 295 294 295 294 294 294 294 294 294 294 297 299 299 299 300 299 298 299 298 298 298 299 299 299 299 299 299 299 299 298 296 295 297 299 298 298 299 300 299 299 300 300 300 300 300 300 301 301 301 301 300 300
319 319 319 318 317 317 317 316 315 314 313 313 313 313 312 312 312 311 311 310 310 310 310 310 310 310 309 309 309 306 304 303 299 295 294 294 294 294 294 294 294 295 295 298 300 300 299 300 300 299 299 299 298 298 298 298 298 298 298 298 298 298 297 296 297 298 298 297 298 299 298 298 299 299 299 299 299 299 300 300 300 300 300 300 300
318 317 317 317 317 316 315 314 313 313 313 312 312 312 312 311 311 310 310 310 309 309 309 309 309 309 308 308 307 304 301 299 296 294 294 294 294 294 294 294 295 296 296 299 301 301 300 300 300 299 299 298 297 297 298 298 298 298 298 298 298 297 297 297 297 296 296 297 298 297 296 296 298 297 298 298 299 298 298 299 298 298 298 299 298
317 317 317 317 316 315 314 313 313 313 312 312 311 311 310 310 309 309 309 309 309 308 308 308 308 307 307 306 303 300 297 296 295 294 294 294 294 294 295 296 298 298 299 300 301 301 300 300 300 300 299 299 298 298 298 298 298 297 297 297 297 298 298 297 297 296 295 296 296 295 294 295 296 296 296 297 298 298 298 298 297 297 297 296 296
317 316 316 316 315 314 313 313 313 312 312 311 310 310 309 308 307 307 307 308 307 306 306 306 305 305 303 301 298 295 295 295 295 295 295 295 295 296 298 299 300 300 300 301 300 300 300 300 300 300 299 299 298 298 297 297 297 296 295 295 297 297 296 295 295 294 293 295 296 295 295 295 295 295 295 296 296 297 297 296 296 296 296 295 295
316 316 316 315 315 314 313 313 312 311 311 310 310 310 308 305 304 305 305 305 304 303 303 302 301 300 298 297 296 296 296 296 296 296 296 295 295 297 300 301 300 301 301 300 300 300 300 300 299 300 300 299 298 298 297 297 297 296 296 296 296 295 293 293 294 293 293 294 296 296 295 296 296 296 295 295 295 296 296 295 295 295 295 295 295
316 316 315 315 315 314 313 312 311 311 310 310 310 309 306 303 302 302 301 300 299 299 298 298 298 298 297 297 297 296 296 297 297 297 297 295 295 297 300 301 301 301 301 300 300 300 300 300 299 299 299 299 298 298 297 297 297 297 296 296 296 295 295 295 296 295 295 295 295 295 295 295 295 295 295 295 295 296 295 294 294 294 295 295 295
315 315 315 315 315 315 314 312 311 310 310 310 309 306 302 300 299 298 297 297 297 297 297 298 300 300 299 298 297 296 297 298 298 299 298 297 297 298 300 300 300 300 301 300 300 300 300 300 299 299 299 298 298 297 297 297 297 296 296 295 295 296 295 295 295 295 294 294 294 294 294 294 294 295 295 295 295 294 294 293 294 294 294 295 295
315 315 314 315 315 315 314 312 311 310 310 310 307 302 300 298 298 298 298 299 300 300 301 302 302 301 300 300 299 299 299 299 300 300 299 297 297 299 300 300 300 300 300 300 300 299 299 299 299 298 298 298 297 297 297 297 297 296 296 295 295 295 295 295 294 294 294 293 293 293 293 293 293 293 294 293 293 293 293 294 294 294 294 294 294
314 314 314 314 314 314 313 312 311 311 310 308 305 303 303 302 301 301 301 302 302 302 302 303 303 302 302 301 301 300 299 300 300 299 298 298 298 299 299 299 300 300 300 299 299 299 299 298 298 298 298 297 297 297 297 296 296 296 295 295 295 295 294 294 294 294 293 293 293 293 293 292 292 293 293 293 293 293 293 294 293 293 293 294 293
313 314 313 313 312 312 312 311 311 311 309 307 306 306 306 306 305 305 304 304 303 303 303 303 303 303 302 302 301 300 299 299 299 298 297 298 299 299 299 299 299 299 299 299 299 298 298 298 298 297 297 297 297 296 296 296 295 295 295 295 295 294 294 294 294 294 293 293 294 294 294 294 295 295 295 295 295 295 295 295 295 294 294 294 294
312 313 313 311 311 310 311 311 311 311 310 308 307 307 307 307 307 307 306 306 305 305 304 304 304 303 302 302 301 298 296 296 297 297 297 298 298 298 298 298 298 298 298 298 297 297 297 297 297 297 296 296 295 294 294 294 293 293 294 294 294 294 294 294 294 294 295 295 296 296 297 297 297 297 296 296 296 296 296 296 296 296 296 296 296
311 312 312 311 310 310 310 310 310 310 310 309 308 308 308 307 307 306 306 305 304 304 304 304 304 303 303 302 299 296 294 294 296 297 298 298 297 297 297 297 297 297 297 297 296 296 296 296 296 295 295 294 293 293 293 293 293 294 294 295 295 295 296 296 296 297 297 297 298 298 298 298 297 297 297 297 296 296 296 296 296 296 297 297 297
311 311 312 312 311 310 310 310 310 310 309 309 308 308 307 307 306 305 305 304 304 304 303 303 302 302 302 300 296 294 292 293 295 297 297 297 297 296 296 296 296 296 296 296 296 296 296 296 296 295 295 295 295 295 296 296 296 296 297 297 297 297 297 298 298 298 298 298 298 298 298 298 298 297 297 297 297 297 297 297 297 297 297 297 297
311 311 311 311 311 311 310 310 309 309 308 308 308 307 306 305 305 304 304 304 304 304 303 302 302 302 301 297 294 292 292 294 296 296 296 296 296 296 296 296 296 296 296 296 296 296 296 296 296 296 296 296 297 297 297 297 297 298 298 298 298 298 298 298 298 298 298 298 298 298 298 298 298 298 297 297 297 297 297 297 297 297 297 297 297
311 311 311 311 311 310 310 310 309 308 308 307 306 306 306 305 305 305 304 304 303 303 303 302 301 300 297 294 292 292 293 295 296 296 296 296 296 296 296 296 296 296 296 296 296 296 296 296 297 297 297 297 297 298 298 298 298 298 298 298 298 298 298 298 298 298 298 298 298 298 298 298 298 298 298 297 297 297 297 297 297 297 297 297 296
311 310 310 310 310 310 310 309 308 308 307 306 306 305 305 305 304 302 301 300 300 300 299 298 296 295 293 292 292 293 295 295 296 296 295 295 295 296 296 297 297 297 297 296 296 296 296 297 297 297 298 298 298 298 298 298 298 298 298 299 298 298 298 298 298 298 298 298 298 298 297 297 297 297 297 297 297 297 297 296 296 296 296 296 296
310 309 309 309 309 308 308 307 307 306 306 305 304 302 301 299 298 296 295 295 295 294 294 293 293 292 292 292 292 294 295 296 296 295 295 295 295 296 296 296 297 297 297 297 297 297 297 297 298 298 298 298 298 298 298 298 298 298 298 298 298 298 298 298 298 298 298 298 298 297 297 297 297 297 296 296 296 296 295 295 295 295 295 295 294
308 308 307 306 305 304 303 303 302 301 300 298 297 295 294 294 293 293 293 292 292 292 292 292 292 292 292 292 293 295 295 295 295 295 295 296 296 296 296 296 296 297 297 298 298 298 298 298 298 298 298 298 298 298 298 298 298 298 298 298 298 298 298 298 298 298 297 297 297 297 296 296 296 295 295 295 295 294 294 293 293 293 292 291 291
Wind_Speed
20 21 22 24 23 22 25 26 26 24 21 19 19 19 21 22 21 20 19 19 21 21 19 16 13 11 9 7 5 5 3 4 6 7 7 6 7 7 8 8 8 7 7 7 7 7 6 6 6 6 7 7 7 7 7 7 6 5 6 5 5 6 7 7 8 10 11 12 12 13 14 14 13 13 14 13 12 12 12 11 12 11 9 9 12
20 22 24 24 23 23 25 27 27 24 20 20 21 20 19 21 22 21 21 20 20 20 19 15 11 10 8 6 6 6 6 7 8 7 7 7 8 9 9 9 9 8 7 7 6 6 6 5 5 5 7 7 7 7 8 8 7 6 6 5 5 6 7 7 8 10 12 13 13 13 14 14 13 13 14 13 12 13 13 11 10 11 10 10 10
21 23 24 24 25 26 28 29 27 23 20 21 23 21 19 21 22 22 21 21 21 21 18 13 9 8 7 7 6 7 8 9 9 8 7 7 8 9 10 9 9 8 7 7 6 5 5 5 5 6 7 7 7 8 8 8 7 7 6 5 5 5 6 6 7 9 11 12 13 14 14 13 13 13 13 12 12 12 12 11 11 11 10 11 12
23 24 25 26 26 29 30 28 26 24 21 22 25 23 20 21 22 22 21 20 21 21 17 12 10 7 7 7 8 9 10 11 10 9 8 9 9 10 10 10 10 9 8 7 6 5 5 5 6 7 7 7 7 7 7 7 7 7 7 6 5 5 6 6 7 8 10 11 12 13 13 13 12 13 13 12 11 12 12 11 12 12 11 12 12
23 25 26 26 27 28 29 27 25 24 22 22 24 23 19 20 22 22 21 21 22 20 16 12 10 8 7 8 9 9 11 11 10 9 10 10 10 11 11 11 10 9 8 7 6 6 6 5 6 6 6 5 5 5 6 6 7 8 8 7 6 6 6 6 7 8 9 10 11 11 12 12 12 12 13 12 12 13 12 13 15 14 13 13 13
23 25 26 26 27 26 26 25 24 24 22 23 25 23 21 21 21 20 20 21 21 19 14 11 9 8 8 8 9 10 11 10 9 9 10 11 11 11 11 11 10 9 7 7 6 7 6 6 6 6 5 5 5 5 6 7 8 9 9 9 8 7 6 6 7 7 8 9 10 11 12 12 12 12 13 13 13 14 14 14 15 16 16 15 14
23 25 26 27 27 26 25 24 24 23 23 25 25 23 22 22 20 20 22 22 20 18 13 10 9 8 8 9 9 10 10 10 10 10 10 11 11 11 11 11 9 7 7 7 6 6 6 6 6 7 7 6 6 6 7 8 9 9 9 10 9 7 6 6 7 7 8 9 10 11 12 12 12 12 12 11 11 13 14 14 16 17 17 16 14
23 27 29 30 28 27 26 25 24 23 24 25 23 21 21 20 19 22 25 23 20 17 13 10 10 9 8 9 10 11 11 10 11 11 11 11 10 10 9 9 8 7 7 6 6 6 6 6 6 8 8 7 7 7 7 8 8 8 9 9 9 8 6 6 7 7 8 10 10 11 11 11 11 11 12 12 12 13 14 14 16 17 17 16 14
25 28 30 30 29 28 28 26 24 25 25 24 22 21 21 21 22 23 24 20 18 17 14 11 10 8 8 10 11 11 11 10 11 11 11 11 10 10 9 8 8 7 7 6 6 6 6 5 7 8 8 8 9 8 8 8 8 8 8 8 8 7 6 5 7 8 9 10 10 11 11 11 12 13 13 13 12 13 13 14 15 15 15 15 13
26 28 30 30 28 28 28 26 26 27 27 26 24 24 23 24 24 24 22 20 18 16 15 12 9 9 10 11 12 12 11 11 13 14 13 12 10 9 9 8 7 7 7 6 6 5 5 5 7 9 10 10 10 9 9 9 8 8 8 8 7 7 6 6 7 8 9 9 10 11 11 12 12 13 14 14 13 12 13 14 14 13 14 15 13
26 27 29 29 28 27 26 25 25 27 28 27 25 25 25 25 25 24 23 20 17 16 15 12 10 11 13 13 13 13 14 15 16 15 15 13 11 9 8 8 8 8 7 7 6 6 5 5 5 7 8 9 11 11 10 10 9 9 9 9 8 8 8 7 7 7 8 9 10 10 10 11 12 13 15 16 14 14 14 13 13 13 14 16 15
26 26 28 28 28 27 25 24 25 27 28 26 26 26 27 27 26 25 22 19 17 16 14 11 11 13 14 14 14 15 16 17 17 15 15 13 11 9 8 7 8 8 8 8 7 7 6 5 5 5 6 9 11 12 12 11 11 10 9 10 10 10 10 9 8 8 7 7 8 9 10 11 12 13 17 18 16 14 13 12 12 12 13 14 15
25 26 28 28 28 28 27 25 26 28 28 28 27 27 28 27 25 23 20 17 16 15 13 12 13 14 16 15 15 17 18 18 17 16 14 13 12 10 7 7 9 8 8 8 8 7 6 6 7 7 8 11 12 12 13 13 12 11 11 11 11 10 10 9 9 11 9 7 7 8 11 13 14 15 18 19 16 12 11 12 12 13 13 12 13
24 26 27 28 29 30 30 28 28 29 30 29 28 28 28 27 24 21 18 16 15 14 14 15 16 16 16 16 16 18 19 18 17 15 14 12 11 10 8 8 9 9 8 8 7 7 7 7 7 7 9 10 11 12 14 14 14 13 11 10 10 11 12 11 11 13 12 9 8 9 11 13 15 16 17 19 18 13 12 14 13 13 14 10 11
25 26 26 27 29 30 31 30 30 31 31 30 30 29 28 26 23 19 16 14 14 13 15 18 19 18 17 16 17 19 18 17 15 14 13 12 12 11 9 9 9 9 9 8 7 8 9 8 8 9 8 9 10 12 13 13 13 12 11 10 11 12 13 13 13 14 13 11 11 11 12 12 13 15 16 17 18 16 15 15 12 12 14 11 10
23 25 25 26 28 30 31 32 32 32 32 32 32 30 28 25 21 18 15 14 13 14 17 20 21 19 17 17 18 18 17 16 14 13 13 13 12 12 11 11 11 10 9 8 8 9 10 9 9 9 9 9 10 13 14 13 11 10 10 12 12 12 12 13 14 14 14 13 13 13 14 13 13 14 15 17 18 16 13 12 11 12 14 11 11
22 25 25 25 27 29 31 33 33 33 33 33 33 30 27 24 20 17 16 14 14 17 20 21 20 18 17 17 18 17 16 15 14 13 14 14 14 13 13 12 12 11 9 8 8 10 12 11 9 8 7 9 11 12 14 14 11 9 9 10 11 11 12 13 14 14 14 14 14 13 13 14 14 14 14 15 16 13 10 10 11 13 13 12 13
19 22 24 25 26 28 30 32 33 33 34 34 33 30 27 23 20 17 15 14 15 19 20 19 18 17 16 16 18 17 16 15 14 14 15 15 16 15 14 14 14 12 11 10 9 11 14 14 12 9 7 8 11 11 13 14 10 9 8 7 8 10 12 13 12 13 14 14 14 14 14 15 15 14 14 14 13 11 10 11 12 12 12 13 13
21 21 22 23 24 27 29 31 32 34 34 34 33 30 27 23 20 17 15 15 17 19 19 17 16 15 16 17 18 16 15 15 15 16 16 16 17 16 14 14 15 14 13 12 10 11 12 13 13 11 9 9 10 10 11 12 10 8 8 7 7 10 12 12 11 11 12 12 11 12 13 13 13 13 14 13 10 10 12 13 12 11 12 12 12
23 22 22 24 25 26 28 31 34 35 36 35 33 30 26 22 20 19 15 15 17 19 17 15 15 16 18 19 16 14 14 14 15 16 17 17 18 16 13 14 16 15 14 13 11 11 10 10 10 10 9 9 9 9 9 10 10 9 8 8 9 9 10 11 11 11 13 11 9 9 9 9 9 10 11 10 9 10 13 15 14 12 11 11 11
18 19 21 24 24 23 25 30 34 36 37 36 32 28 25 22 21 19 15 15 17 17 16 17 19 22 22 19 16 14 14 14 16 18 18 19 20 17 13 14 15 14 13 12 10 10 8 7 9 10 9 8 8 7 7 8 10 10 9 9 9 8 9 11 12 12 12 11 9 8 7 8 8 9 9 9 9 10 12 13 14 14 13 12 11
16 18 20 22 22 22 25 30 34 36 36 32 28 27 26 24 22 18 16 19 21 18 19 23 27 27 23 20 17 16 15 16 18 19 20 21 22 19 16 16 16 13 12 11 10 10 9 9 9 10 9 8 7 6 6 7 9 9 9 10 9 8 10 12 11 10 9 9 8 7 7 7 8 9 9 9 9 10 10 10 12 13 13 13 13
18 19 20 21 22 24 28 33 37 38 34 28 26 27 25 23 23 19 18 24 27 24 26 31 31 27 24 21 18 16 16 17 19 20 21 22 22 20 19 20 17 13 11 11 10 9 10 10 10 9 9 8 7 6 5 6 7 7 9 10 9 9 11 11 9 9 9 8 9 9 9 9 8 9 9 10 9 9 10 10 9 10 12 14 17
18 18 19 22 24 24 28 33 35 34 31 28 27 27 25 24 25 22 22 29 32 31 32 32 29 27 26 23 20 18 17 18 19 20 21 21 20 19 18 20 19 14 12 11 11 10 10 10 10 9 9 8 7 6 5 5 6 7 8 10 10 11 11 9 8 8 9 9 9 9 10 11 11 10 9 10 10 9 9 11 11 11 13 17 21
20 20 21 24 25 24 27 32 33 32 31 29 27 26 26 26 25 23 26 33 35 34 33 31 28 27 25 22 20 19 18 18 19 19 19 19 19 17 17 17 18 16 14 13 12 11 11 10 9 9 9 8 7 6 4 4 4 6 8 10 11 10 9 8 8 8 8 8 8 8 9 10 12 13 13 12 11 9 8 10 12 11 11 14 18
24 24 24 26 26 25 26 30 34 36 34 31 29 27 26 25 23 24 29 33 33 33 34 32 29 26 24 23 22 20 19 19 19 19 19 18 17 17 16 15 15 15 14 12 11 10 10 10 10 9 9 9 8 6 4 3 4 6 9 10 9 8 8 8 7 7 7 7 8 7 8 8 9 12 12 11 10 10 9 9 10 11 10 10 11
22 24 24 25 26 26 27 30 34 38 37 33 30 27 24 21 23 29 34 34 33 33 33 30 27 26 25 25 23 21 19 18 19 19 19 18 17 16 15 14 14 12 11 10 10 10 9 10 9 9 9 8 8 7 5 3 4 6 6 6 6 7 8 8 7 7 6 6 6 6 7 7 8 9 9 9 9 10 11 9 9 10 10 9 8
19 21 23 24 25 27 28 30 35 38 37 33 28 25 21 19 25 34 37 36 34 34 32 30 28 26 26 24 22 21 19 18 18 19 19 18 16 15 14 13 12 10 9 10 10 10 9 9 8 8 7 6 5 5 4 3 2 2 3 3 5 7 8 8 8 6 5 5 5 5 6 6 7 7 7 9 9 10 10 9 9 10 10 9 9
17 20 22 23 25 27 28 32 36 38 35 30 26 23 21 22 29 35 36 34 32 31 30 29 28 26 25 22 20 20 19 18 18 20 20 19 17 15 13 13 12 11 11 12 11 9 8 7 7 6 6 5 5 5 4 4 4 3 4 4 4 5 6 6 5 4 4 4 5 5 6 6 6 6 6 7 8 9 10 10 9 9 9 9 9
17 19 21 23 26 28 31 33 34 33 32 29 26 25 25 28 32 33 31 29 27 26 26 26 25 23 22 20 19 19 18 16 17 19 19 19 18 16 15 14 13 13 13 12 10 8 7 7 6 6 6 5 6 6 5 5 4 3 2 4 3 2 4 4 3 3 4 5 4 5 6 6 6 6 6 6 6 8 9 10 9 9 9 9 9
18 20 22 24 27 30 31 32 32 32 31 29 28 28 30 31 31 29 27 26 24 24 24 24 22 21 21 19 19 18 15 13 15 18 19 18 17 15 14 13 13 13 12 11 9 7 7 7 7 6 6 6 6 6 5 5 5 4 3 3 2 2 3 2 0 2 4 4 4 5 5 5 5 6 6 6 6 6 7 8 8 8 9 9 9
19 22 24 26 28 30 30 31 32 32 29 26 26 28 30 31 30 28 26 25 24 23 21 20 20 20 18 15 15 15 14 13 15 18 19 17 16 14 12 12 12 12 12 11 8 6 6 6 5 6 6 6 6 7 5 4 4 4 3 3 2 2 2 2 2 1 2 2 3 4 5 5 5 5 6 7 7 6 7 7 7 8 8 8 9
19 21 23 25 26 27 27 28 28 25 23 23 25 26 28 29 30 29 27 25 24 23 21 20 19 18 16 14 13 13 13 14 15 17 17 16 14 13 12 12 12 12 12 10 6 5 6 5 4 5 5 5 5 6 5 5 4 4 3 3 2 1 1 2 0 2 2 2 2 4 5 5 5 6 6 6 6 6 7 7 7 7 7 8 9
16 17 20 22 23 24 25 25 24 22 22 24 25 25 24 25 26 26 26 25 24 23 22 21 20 19 17 17 15 13 13 14 16 17 17 15 13 11 11 12 12 13 12 9 5 4 6 5 4 5 4 4 5 5 5 5 4 3 3 3 2 1 1 1 2 1 2 2 3 4 5 4 5 6 6 6 6 6 6 7 7 7 8 8 8
14 17 19 21 23 25 26 25 25 24 24 24 24 23 22 22 22 22 23 24 24 24 23 23 23 21 19 18 16 13 13 15 16 16 15 14 12 11 11 11 10 10 10 7 4 5 5 5 4 5 4 4 5 5 4 4 4 3 3 3 2 1 1 1 1 1 1 2 3 4 4 4 5 6 5 6 6 6 6 6 7 7 7 8 8
17 19 21 23 25 27 27 26 25 26 25 24 22 20 18 18 19 20 22 24 25 26 26 26 25 23 20 18 16 15 15 16 16 15 14 13 11 10 10 9 8 7 6 6 5 5 5 5 4 4 4 4 4 4 4 4 3 3 4 3 2 1 1 0 1 2 1 1 4 5 4 4 5 6 5 6 6 6 6 7 7 7 7 8 9
17 19 21 25 27 27 27 26 25 24 24 23 21 18 16 16 18 22 25 27 27 26 26 26 25 24 22 19 18 17 17 16 15 15 13 12 12 11 9 7 7 7 6 6 6 5 5 5 5 4 4 4 3 4 4 4 3 4 4 3 2 2 3 4 4 3 1 1 4 6 6 6 6 6 6 6 6 7 7 7 7 8 8 9 9
15 16 19 25 29 28 27 26 24 22 22 21 19 17 16 17 20 24 26 25 25 24 24 24 23 23 22 20 19 18 17 16 16 15 13 13 14 13 9 7 7 7 6 6 6 5 5 5 5 4 4 4 4 4 4 4 3 3 2 2 2 3 3 2 3 4 3 3 4 6 6 6 7 7 7 7 7 7 8 9 9 8 9 9 8
16 17 19 24 27 28 27 26 23 22 22 20 17 16 17 18 21 23 22 21 21 22 23 22 21 19 19 19 17 17 16 15 15 14 13 13 13 11 8 7 7 7 6 6 6 6 5 4 5 5 4 4 4 4 3 3 3 3 2 2 2 2 2 2 3 4 4 4 4 5 6 6 6 7 8 8 8 8 10 11 11 10 10 10 9
17 18 18 21 25 27 27 25 23 22 22 19 16 16 17 19 21 20 20 21 22 22 21 20 17 16 16 15 14 13 13 13 13 13 12 13 12 11 8 8 7 7 6 6 6 5 5 4 4 4 4 4 4 3 3 3 2 2 2 2 2 2 3 3 3 4 4 5 5 5 6 6 7 7 7 8 9 10 11 11 12 11 11 11 12
16 18 17 18 21 25 26 25 22 20 19 18 17 18 19 20 20 20 20 21 21 20 18 16 15 14 14 12 11 11 10 10 11 11 12 12 12 10 9 8 7 6 6 6 5 5 4 4 3 3 3 3 3 3 3 3 2 2 3 3 2 2 3 4 4 5 6 6 6 6 7 7 8 9 10 11 12 12 12 11 11 12 12 12 13
15 15 16 17 19 23 26 25 22 20 19 20 20 20 20 21 21 21 21 20 19 17 16 15 14 14 12 10 10 10 9 9 10 11 12 12 11 10 9 8 7 6 5 5 5 5 4 4 4 3 3 3 3 2 2 2 2 2 2 3 3 3 3 4 4 6 7 7 8 9 10 11 11 12 12 13 13 12 12 12 14 14 14 14 14
16 16 19 22 24 26 26 25 24 22 21 22 22 22 20 20 20 20 19 19 18 17 15 14 14 13 11 10 10 10 9 9 10 11 12 11 10 9 9 8 7 6 6 5 5 5 4 4 3 3 3 3 3 3 3 3 3 2 1 2 3 4 4 4 5 6 7 7 8 10 11 12 11 11 11 12 12 12 13 14 15 15 14 14 14
20 22 25 26 26 24 24 25 24 23 22 21 22 20 19 17 16 16 16 16 16 16 15 14 14 13 13 12 11 11 10 10 11 11 11 11 11 10 9 8 7 7 6 5 5 5 4 4 4 4 4 4 5 5 4 3 3 3 2 2 2 3 3 4 5 6 6 7 8 9 10 11 11 11 11 12 12 13 14 15 14 15 15 16 17
21 23 25 26 25 24 24 23 22 20 20 20 20 19 18 17 16 17 17 17 17 17 16 15 14 14 14 12 11 11 13 14 14 13 11 11 11 12 11 9 8 7 6 6 6 6 5 4 4 4 4 4 3 3 2 2 2 2 2 2 2 2 3 4 5 7 8 9 11 12 13 14 15 15 15 14 15 15 16 16 17 18 20 22 22
19 21 23 25 25 24 22 21 19 18 18 19 20 20 19 19 18 18 18 17 17 15 15 14 15 14 13 12 11 12 14 15 15 14 12 11 12 12 11 9 8 8 7 6 6 6 5 5 4 4 4 4 4 3 3 2 2 2 2 2 3 4 6 7 9 11 12 13 14 16 17 18 19 20 20 21 21 21 22 23 24 25 26 27 27
18 19 21 23 23 22 20 19 18 18 19 20 21 21 20 19 17 16 16 15 14 13 14 14 15 14 13 12 13 15 17 18 17 15 14 13 12 11 10 9 9 8 6 5 6 6 7 6 5 5 5 4 4 3 3 3 3 4 5 6 7 8 10 12 13 15 16 17 18 19 20 21 22 23 23 24 24 25 26 26 27 27 28 28 29
19 20 20 20 20 18 17 17 18 19 20 20 20 19 18 16 15 14 14 13 12 13 14 14 13 13 14 14 16 18 20 19 18 15 14 12 11 10 10 10 9 7 6 5 6 7 7 6 5 5 5 4 4 4 5 6 7 8 9 10 11 13 14 16 17 18 19 20 20 21 21 22 22 22 23 23 24 24 25 25 26 26 26 27 27
18 19 19 18 18 17 17 17 18 19 18 18 18 16 14 14 14 13 12 12 12 13 14 14 14 15 15 17 18 20 19 18 16 14 12 10 10 10 10 9 8 7 6 5 5 6 6 6 6 5 5 6 6 7 8 9 10 11 13 14 16 17 17 18 19 19 19 19 19 20 20 20 21 21 22 22 23 23 24 25 25 26 26 27 27
17 17 17 18 18 18 17 17 18 17 16 16 15 14 14 14 14 14 14 14 14 14 14 15 15 16 17 19 20 20 19 16 14 12 10 9 9 10 10 8 7 6 5 5 5 5 5 6 6 6 7 8 9 10 11 13 14 15 16 17 17 18 18 18 18 19 20 20 21 21 21 22 23 23 23 24 24 25 25 26 27 27 28 28 28
19 18 18 17 17 17 17 18 18 18 17 17 17 16 17 17 17 17 17 16 16 16 17 16 17 17 18 19 20 19 17 15 13 12 10 10 9 9 8 8 6 5 5 5 6 6 6 7 8 9 10 11 13 14 15 16 16 16 17 17 17 17 18 19 20 20 21 22 22 23 23 24 24 25 25 26 26 26 27 27 28 28 28 27 25
Wind_Direction
191 191 190 191 192 191 195 197 195 196 197 198 210 219 220 219 224 226 215 206 203 196 186 184 188 200 208 200 213 230 210 196 190 172 155 134 123 121 117 114 114 109 101 90 79 71 60 48 38 30 28 26 23 17 9 9 11 9 4 1 3 1 3 3 351 344 349 350 350 348 347 352 357 353 352 352 350 353 353 347 351 357 1 354 337
188 187 186 188 188 184 192 196 194 197 196 196 209 219 221 224 225 220 209 204 204 199 190 186 191 203 208 208 207 192 178 183 180 164 151 137 129 127 124 123 120 112 104 94 82 71 61 50 38 27 23 21 17 9 3 5 8 6 4 6 8 4 3 5 359 351 349 349 350 349 349 354 356 355 356 354 352 354 352 350 357 356 358 5 349
190 187 183 183 186 185 188 191 193 198 200 203 211 215 220 224 219 212 205 202 202 199 191 190 198 203 207 213 196 173 176 179 169 159 151 137 131 130 128 126 122 115 107 98 87 74 63 48 32 26 23 17 10 5 -0 1 7 6 3 6 8 5 2 4 4 355 349 349 350 352 353 355 357 357 358 358 356 356 355 354 359 359 358 3 358
188 184 180 181 185 188 187 188 193 199 201 206 210 213 217 214 207 206 205 203 203 197 190 195 205 204 199 193 176 167 176 174 166 163 154 139 134 131 130 131 126 120 115 107 99 88 76 59 42 31 25 17 9 8 5 6 18 17 9 10 10 7 3 4 5 357 350 349 351 355 356 355 359 358 358 5 5 1 2 2 0 1 0 0 359
185 182 180 182 184 187 187 188 194 199 200 204 209 215 219 210 203 203 203 203 200 193 193 202 202 194 187 177 168 168 171 168 166 163 151 143 141 136 135 135 130 125 121 112 105 95 82 70 57 42 33 27 22 25 26 28 35 31 26 26 22 13 8 7 7 2 358 355 352 356 359 358 3 1 359 7 9 5 8 9 5 4 3 2 359
184 182 183 183 183 184 187 190 195 198 196 200 208 214 213 207 206 204 200 199 198 194 199 206 191 176 175 170 164 166 166 162 159 158 153 150 147 142 139 138 135 131 121 106 97 92 84 71 63 60 57 56 55 57 57 54 48 39 35 39 39 31 17 9 11 8 5 2 358 1 4 3 6 6 2 7 10 7 7 9 9 8 7 4 1
183 185 187 186 184 183 188 193 198 197 192 195 203 206 202 201 204 203 197 194 196 199 202 201 185 171 171 168 162 161 159 155 153 156 155 149 145 144 141 139 137 129 115 105 96 90 85 74 73 80 78 73 71 71 74 70 58 44 36 39 46 47 30 14 16 16 11 10 9 9 10 7 8 9 5 7 13 11 9 9 8 8 9 6 3
182 186 187 188 186 185 189 194 196 196 193 193 196 197 196 196 198 199 195 191 196 203 202 197 188 176 170 165 162 161 157 154 156 156 151 144 143 142 139 137 135 126 118 112 102 95 92 84 87 90 84 77 74 71 74 72 64 53 42 39 43 47 38 21 23 26 20 19 19 15 14 12 10 9 6 7 13 12 9 9 7 6 8 7 4
182 185 186 187 188 188 190 193 193 194 195 192 191 193 194 192 191 192 192 192 197 203 204 201 193 183 174 165 162 161 156 157 160 155 147 142 141 139 136 135 132 130 126 120 113 107 100 98 101 96 84 77 76 73 71 67 62 56 48 43 43 45 42 32 34 38 29 23 23 19 18 16 12 10 9 8 10 10 6 6 6 4 5 8 7
181 184 186 187 188 190 193 193 191 192 193 189 187 190 190 187 185 186 190 193 199 204 209 206 193 185 182 172 166 165 164 168 168 160 151 146 141 137 137 134 133 135 131 125 124 118 110 112 107 93 82 79 77 76 74 67 61 56 49 47 46 44 46 41 40 42 36 28 25 20 19 18 13 12 10 8 15 19 8 1 2 1 2 7 7
182 185 189 190 191 194 196 195 191 191 191 187 184 187 185 182 183 186 189 194 200 209 216 211 193 186 183 174 170 174 175 174 170 164 158 152 143 137 138 137 138 140 136 133 132 122 120 124 102 78 75 77 72 71 73 68 63 59 51 50 48 48 52 50 46 46 39 33 29 21 19 16 10 12 12 10 19 25 12 357 357 359 1 5 3
183 187 192 194 195 196 196 196 193 192 191 186 183 184 183 182 184 186 190 196 203 215 221 208 188 183 179 173 172 179 178 173 168 165 162 158 149 141 142 143 142 144 143 140 136 129 128 131 121 109 98 83 67 61 62 61 61 60 56 55 55 56 57 53 50 51 42 34 30 22 20 17 10 11 14 14 17 19 8 356 355 1 2 2 2
186 188 192 195 196 195 195 196 195 192 191 188 184 183 183 183 185 187 192 199 207 218 217 197 182 179 177 173 175 177 175 171 169 167 164 165 157 144 143 146 145 147 147 142 138 138 137 130 124 117 98 83 72 62 58 56 58 58 55 53 56 62 64 57 53 56 52 41 31 24 23 21 14 11 15 16 13 4 358 357 359 3 359 355 359
189 191 193 194 195 195 194 195 195 192 191 189 185 182 182 183 185 188 194 203 212 218 207 190 182 180 176 174 174 174 171 169 171 167 163 168 162 147 145 152 150 148 148 144 140 140 139 132 123 110 94 90 88 76 63 55 54 54 54 54 57 61 63 57 52 55 55 43 30 25 21 18 13 9 14 17 11 2 3 1 355 356 354 346 353
193 196 195 194 195 197 196 195 194 193 191 187 184 183 182 183 185 187 194 203 211 212 200 187 182 179 176 175 174 171 169 168 169 166 164 168 164 153 151 153 149 147 149 147 144 141 140 137 129 119 109 103 97 88 74 59 49 47 50 54 57 58 58 56 51 50 51 44 33 27 19 13 8 5 9 11 7 8 11 360 349 356 -0 358 359
200 201 199 198 197 196 196 196 195 193 189 186 185 184 183 183 183 185 193 201 203 199 188 182 181 176 173 174 173 170 169 167 167 167 167 167 164 157 156 152 148 151 154 149 147 142 135 133 129 123 116 102 90 87 83 70 50 40 41 42 45 47 48 52 52 47 45 41 31 22 15 9 -0 357 2 2 358 4 10 358 356 8 9 9 8
206 204 203 203 199 196 197 199 197 193 189 185 185 185 183 182 182 186 196 202 196 187 179 177 177 173 168 170 171 170 168 167 168 169 167 166 161 157 157 153 149 154 155 151 155 152 144 140 132 120 113 102 89 84 81 74 56 41 43 39 38 39 35 38 42 39 38 38 29 19 10 1 353 352 357 355 350 356 8 7 11 14 12 14 11
202 203 206 207 202 198 200 201 198 194 189 186 185 184 182 182 183 187 198 201 190 180 174 170 169 167 166 168 170 170 169 169 171 169 166 164 159 155 157 157 153 154 155 154 160 158 152 148 140 132 126 106 91 83 80 75 57 42 50 47 43 47 42 37 35 28 27 29 23 17 9 1 359 359 357 354 355 6 18 19 19 15 14 17 9
202 206 213 215 211 208 207 204 200 197 192 187 185 184 182 181 183 188 195 194 185 176 168 165 163 163 166 166 166 169 171 172 171 166 164 164 156 149 156 160 156 154 155 153 154 154 151 149 146 143 135 108 91 82 79 78 65 49 58 64 60 60 54 47 42 34 32 27 16 14 10 5 8 7 357 357 11 28 33 31 27 18 16 18 10
214 218 225 223 217 215 213 206 200 196 192 186 184 184 183 182 186 194 194 186 178 170 164 162 160 159 162 160 161 169 174 174 172 165 164 163 153 146 158 163 155 153 154 151 152 151 147 148 149 142 127 109 96 84 76 77 69 55 58 71 72 67 59 51 44 42 43 36 22 21 17 7 14 16 4 2 21 36 38 35 32 24 19 20 15
221 230 234 228 221 221 220 211 202 196 190 184 182 183 184 184 190 197 191 174 169 164 162 163 159 157 159 159 162 171 174 177 174 166 163 161 151 145 156 160 153 152 153 151 151 148 143 154 160 147 129 116 104 89 76 73 65 53 55 68 70 65 61 55 45 39 39 32 20 23 25 15 18 23 15 11 20 30 31 30 31 33 31 30 25
232 232 229 226 224 226 222 211 204 200 192 185 183 184 183 185 191 194 184 175 173 165 161 165 164 160 160 161 163 168 171 176 175 166 161 158 150 147 157 161 154 152 153 153 152 151 156 170 168 151 136 128 117 104 88 75 62 51 53 63 67 65 61 57 50 43 40 36 30 32 34 27 25 28 25 18 17 22 24 23 28 34 37 40 38
237 235 227 221 221 222 213 203 200 197 189 184 187 187 184 187 192 193 185 179 176 169 165 167 167 163 162 160 161 163 166 171 171 163 159 157 154 157 165 162 151 146 154 155 151 159 173 178 170 158 149 141 128 115 99 81 65 55 58 65 69 69 62 56 53 51 47 44 42 41 42 40 34 30 26 20 18 19 19 20 27 31 35 43 46
239 241 233 224 223 224 214 205 201 195 188 187 190 189 188 191 194 195 189 181 177 174 172 171 169 167 165 162 162 163 164 166 165 162 159 159 158 161 165 159 151 148 155 155 154 166 179 178 174 168 158 148 140 131 114 90 68 58 64 70 69 68 65 59 55 54 50 47 43 40 41 42 42 45 40 29 26 23 15 18 28 35 36 41 47
236 239 236 229 228 229 219 208 201 196 193 194 195 194 196 196 196 197 192 184 180 177 174 172 171 170 169 167 166 165 164 165 165 163 161 160 160 160 162 163 161 160 161 163 168 175 176 176 177 174 164 156 147 135 120 102 78 64 68 72 69 68 70 66 59 55 51 46 41 37 35 35 39 48 48 37 31 30 23 17 22 33 36 33 39
234 236 235 230 230 229 220 207 198 194 195 198 199 198 199 198 195 191 186 182 181 179 176 173 173 174 173 171 169 167 165 166 167 165 162 161 161 161 161 164 166 165 166 170 173 173 172 174 174 170 168 164 152 145 151 134 87 64 61 65 70 76 80 75 68 61 51 44 39 34 32 28 29 36 39 34 28 32 35 27 20 26 32 27 27
236 234 232 229 228 225 218 207 198 195 197 199 197 195 197 201 194 183 179 180 181 181 179 177 177 179 178 174 171 169 168 169 170 168 166 163 162 161 162 163 163 162 163 166 168 170 172 172 168 166 167 164 156 154 155 125 77 59 57 61 71 83 86 80 74 66 52 40 33 27 26 25 25 27 31 32 31 30 33 34 26 24 26 26 27
236 231 228 228 227 224 217 208 201 198 197 196 192 188 191 197 189 180 179 181 182 182 181 179 180 183 181 177 174 172 171 172 173 171 169 164 161 161 162 158 151 149 158 165 167 169 166 160 157 156 153 148 144 144 144 138 130 127 120 86 57 57 61 58 55 53 45 34 27 20 17 17 19 22 26 29 32 32 31 34 33 27 24 24 29
228 226 225 224 225 222 214 206 202 198 192 187 183 180 181 184 182 181 182 183 185 185 184 182 184 186 185 182 177 174 174 176 177 176 171 164 160 160 159 154 151 159 169 168 161 154 150 146 144 145 147 150 154 159 171 177 176 174 155 120 77 56 59 56 47 45 48 38 19 11 11 9 9 11 16 20 24 27 30 33 31 26 23 24 25
217 219 221 221 220 215 207 201 198 192 184 180 177 174 174 178 181 183 185 186 188 188 187 187 187 187 186 186 182 179 179 180 178 177 172 166 163 162 163 162 163 169 171 163 153 149 151 153 155 156 160 166 167 170 180 179 178 193 168 121 112 109 95 80 58 50 53 42 21 9 6 4 3 3 7 13 15 14 20 27 30 27 25 23 20
211 212 215 216 214 209 202 196 190 183 180 180 178 174 173 177 180 183 185 187 188 188 191 193 192 189 190 190 186 182 182 181 177 174 170 166 163 162 165 167 166 167 166 155 147 150 154 155 159 161 165 172 172 172 178 178 175 181 161 130 145 133 100 94 65 47 40 22 10 9 2 359 1 356 358 7 10 6 8 15 21 24 24 20 16
210 208 208 209 209 206 198 190 184 178 176 178 178 176 174 175 176 178 181 182 183 187 193 197 199 199 197 191 184 182 180 179 179 176 170 165 161 160 164 166 167 170 164 148 137 146 152 150 158 163 167 178 178 170 172 179 178 172 159 151 156 121 115 210 216 95 39 344 347 358 349 348 351 345 346 354 359 2 2 4 10 14 13 10 7
211 209 207 205 204 199 191 182 178 174 171 173 175 173 172 171 171 173 174 176 179 184 188 190 194 196 191 181 180 185 183 178 176 172 167 163 160 160 164 167 170 171 160 142 137 162 160 152 164 169 164 174 179 173 175 179 175 169 160 147 141 154 206 236 142 63 7 323 348 346 331 332 338 335 337 342 345 349 352 355 3 6 4 1 359
213 210 204 198 192 184 176 172 170 167 165 165 166 165 167 170 172 172 173 175 177 179 179 178 179 179 176 174 176 183 184 178 172 168 165 162 160 161 165 168 171 171 160 147 152 180 170 162 173 172 165 175 180 175 176 177 171 166 159 143 135 166 197 56 68 41 319 336 347 322 308 319 329 326 329 336 337 340 346 348 353 358 360 357 352
200 193 189 185 179 172 168 167 165 161 158 158 160 163 167 171 175 177 178 177 176 174 172 172 172 170 170 172 174 175 176 173 168 165 164 162 162 164 166 167 171 173 166 159 168 184 179 175 176 172 172 183 183 176 175 176 167 153 146 140 134 139 91 50 34 288 328 354 323 300 298 319 322 317 321 329 328 332 337 339 343 350 351 348 344
182 178 179 177 171 166 163 162 159 157 155 155 157 160 165 169 174 179 180 176 173 171 171 170 168 166 166 169 171 169 166 166 166 165 164 165 165 163 161 164 170 176 177 175 180 183 178 172 172 173 174 178 184 185 183 178 173 178 178 163 138 124 124 157 262 276 315 337 312 309 319 327 315 311 319 323 321 323 326 326 332 339 336 332 337
179 178 177 173 167 162 159 157 154 154 154 153 154 157 161 166 172 177 178 176 173 171 170 167 165 164 165 166 168 166 163 164 167 165 166 169 166 157 158 173 180 177 179 181 177 175 174 169 167 168 169 171 177 184 187 190 196 212 209 178 152 202 224 223 239 259 275 328 316 315 324 326 319 321 327 323 317 319 319 317 322 325 324 329 339
182 176 174 171 166 161 157 153 150 152 155 154 156 160 162 165 171 175 178 178 175 172 170 168 166 166 166 166 167 168 167 168 169 170 173 175 167 158 163 185 185 175 177 180 173 166 167 168 166 161 164 171 175 179 188 191 193 210 220 202 216 253 258 269 303 317 336 346 324 312 315 317 314 314 315 313 314 316 313 311 316 318 319 325 331
175 171 173 176 173 167 159 153 150 153 157 156 158 162 163 165 170 174 175 173 169 169 171 169 165 167 170 171 170 170 172 175 178 180 181 178 170 166 173 185 182 176 176 176 173 169 166 172 175 174 175 181 181 179 185 192 195 208 219 219 248 286 306 322 317 315 320 320 312 307 308 306 303 305 309 312 314 311 307 308 313 315 313 313 311
171 170 172 178 178 172 165 158 152 153 157 158 158 159 160 163 167 169 166 163 163 166 167 162 160 167 175 173 167 165 170 176 180 183 184 180 175 175 179 180 178 178 175 172 174 173 171 175 185 189 193 195 191 188 197 203 208 225 238 238 256 289 297 291 289 294 296 297 301 307 310 308 306 307 307 305 301 301 306 312 314 313 311 308 305
167 168 171 180 182 175 168 162 156 153 156 157 154 153 156 160 162 163 162 161 161 161 158 156 161 170 171 165 157 156 163 171 177 181 182 179 175 174 175 173 171 173 175 174 174 172 169 171 178 182 189 191 189 194 210 220 223 238 254 260 270 291 299 302 302 294 290 295 302 303 301 301 302 302 302 301 302 304 309 310 308 306 305 304 301
163 170 175 176 172 166 163 162 160 158 158 157 155 155 157 159 161 162 163 163 162 159 158 162 169 169 163 160 160 157 157 168 176 175 172 171 170 169 170 167 163 161 163 162 162 162 160 159 163 169 175 183 189 197 215 238 251 262 277 285 284 280 287 298 298 292 294 302 306 303 303 307 310 309 308 309 310 311 308 306 307 308 306 304 303
147 151 154 152 152 157 162 164 164 163 162 160 160 160 160 162 163 165 167 167 167 168 172 178 179 175 173 177 177 168 161 166 172 168 163 162 163 163 162 160 159 158 155 151 150 152 153 152 159 174 184 195 213 218 217 226 235 239 268 291 286 281 284 287 290 294 301 306 307 310 315 319 318 315 313 312 312 312 311 311 314 313 308 303 302
140 142 146 149 152 158 163 164 164 164 163 163 164 164 163 164 166 168 170 170 171 175 181 185 186 186 186 187 184 178 173 168 163 159 158 158 159 160 159 160 161 159 154 151 152 156 158 163 179 199 207 218 233 236 229 227 227 221 222 251 272 287 293 294 298 306 312 313 312 313 316 315 313 311 310 308 307 307 308 310 310 307 304 305 304
149 152 155 159 161 162 163 163 163 163 164 166 168 168 167 168 170 172 174 173 173 176 178 180 181 181 182 184 184 183 178 169 159 153 152 154 159 160 158 157 159 157 155 162 170 170 168 173 189 205 211 212 214 208 194 195 209 214 223 240 264 295 304 306 309 311 308 306 305 304 303 302 303 303 300 297 296 297 298 298 297 295 297 299 300
160 162 165 168 170 171 170 166 164 164 166 169 170 170 171 173 175 176 175 174 175 177 177 176 175 176 179 182 182 176 168 161 156 151 150 153 158 160 158 157 159 159 161 172 179 179 179 182 184 186 182 172 163 160 164 180 203 229 262 280 293 302 302 299 298 296 294 293 294 293 293 294 294 295 295 295 296 296 296 295 295 295 296 296 296
165 164 165 168 171 173 172 169 166 167 169 170 171 173 175 177 178 178 177 177 180 182 181 179 179 181 182 181 174 165 160 157 155 154 154 155 156 157 158 159 160 161 165 175 184 189 194 196 191 184 181 178 176 183 206 237 260 275 285 291 292 292 290 288 287 287 287 288 289 289 290 290 292 292 293 294 294 294 294 294 294 295 295 295 295
168 165 164 166 169 173 174 173 172 171 171 173 174 175 178 180 180 180 181 180 181 183 184 183 181 181 179 173 165 160 157 155 153 152 153 152 152 155 160 163 166 171 179 190 197 201 205 207 205 202 202 205 217 237 257 272 280 283 284 285 284 283 284 285 286 288 290 292 293 294 293 294 294 294 294 295 295 295 296 296 295 296 296 296 296
171 169 167 167 169 173 175 175 175 175 176 177 178 177 178 178 177 175 175 174 173 175 177 175 173 172 169 162 157 154 152 151 151 153 155 155 157 162 167 172 177 184 191 200 206 208 209 211 215 220 227 238 254 266 272 276 279 280 280 282 284 286 289 291 294 296 299 299 300 301 301 301 301 301 301 301 302 301 301 301 301 301 301 301 302
162 164 165 165 165 168 169 169 171 172 172 172 170 167 165 165 163 160 160 161 161 161 162 161 160 160 157 154 153 152 152 154 157 160 161 164 168 174 180 186 190 193 197 201 205 210 214 220 229 241 251 258 264 269 271 274 277 280 284 288 291 294 296 298 299 301 303 304 305 306 306 305 305 306 306 306 306 306 306 305 305 305 305 306 307
153 156 159 159 158 158 155 153 152 151 149 147 147 146 146 147 147 146 147 147 147 147 148 147 148 148 149 150 153 155 157 162 168 172 175 179 182 185 191 196 199 203 209 212 216 222 228 235 243 250 256 261 265 269 273 278 283 287 291 294 296 297 299 301 302 303 304 305 305 306 306 307 307 308 308 308 308 308 308 308 307 307 308 309 309